Date String (YYYY-MM-DD hh:mm:ss) UTC,Instrument flags,Ambient pressure (hPa),Sample flow (lpm),Bypass flow (lpm),Sample temperature (°C),Ambient temperature (°C),ASC tube jacket temperature (°C),LED temperature (°C),Box temperature (°C),Sample RH (%),Span deviation,Mass concentration (μg/m³),Mass concentration (μg/m³),Mass concentration (μg/m³)
DateTimeUTC,F1_M11,P_M11,Q1_M11,Q2_M11,T1_M11,T2_M11,T3_M11,T4_M11,T5_M11,U1_M11,ZSPAN_M11,X0_M11,X2_M11,X1_M11
2022-09-30 05:00:00,,0827.8,4.99,0.00,30.2,28.9,00.0,38.9,32.0,18.1,0000.0,0008.47,0003.71,0003.30
2022-09-30 05:01:00,,0827.9,5.00,0.00,30.2,29.0,00.0,38.9,32.1,17.3,0000.0,0008.04,0003.72,0003.28
2022-09-30 05:02:00,,0827.9,4.99,0.00,30.2,29.0,00.0,38.9,32.1,16.9,0000.0,0007.98,0003.71,0003.26
2022-09-30 05:03:00,,0827.8,5.02,0.00,30.2,29.1,00.0,38.9,32.1,16.7,0000.0,0007.98,0003.70,0003.22
2022-09-30 05:04:00,,0827.9,4.98,0.00,30.2,29.1,00.0,39.0,32.1,16.7,0000.0,0007.93,0003.65,0003.18
2022-09-30 05:05:00,,0827.9,5.01,0.00,30.3,29.1,00.0,39.0,32.1,16.7,0000.0,0007.48,0003.62,0003.14
2022-09-30 05:06:00,,0827.9,4.99,0.00,30.3,29.2,00.0,39.0,32.1,16.7,0000.0,0007.20,0003.57,0003.10
2022-09-30 05:07:00,,0827.9,5.01,0.00,30.3,29.2,00.0,39.0,32.2,16.7,0000.0,0006.97,0003.51,0003.02
2022-09-30 05:08:00,,0827.9,4.99,0.00,30.3,29.2,00.0,39.0,32.2,16.8,0000.0,0006.64,0003.44,0002.96
2022-09-30 05:09:00,,0827.9,5.01,0.00,30.4,29.2,00.0,39.0,32.2,16.9,0000.0,0006.48,0003.40,0002.94
2022-09-30 05:10:00,,0827.9,5.01,0.00,30.4,29.3,00.0,39.1,32.3,17.0,0000.0,0005.68,0003.37,0002.89
2022-09-30 05:11:00,,0827.9,4.99,0.00,30.4,29.3,00.0,39.1,32.3,16.8,0000.0,0004.79,0003.28,0002.80
2022-09-30 05:12:00,,0827.9,5.01,0.00,30.4,29.3,00.0,39.1,32.3,17.0,0000.0,0004.65,0003.24,0002.77
2022-09-30 05:13:00,,0827.9,4.99,0.00,30.4,29.3,00.0,39.1,32.3,17.1,0000.0,0004.83,0003.24,0002.74
2022-09-30 05:14:00,,0827.9,5.00,0.00,30.5,29.3,00.0,39.1,32.3,16.9,0000.0,0004.96,0003.23,0002.76
2022-09-30 05:15:00,,0827.9,5.02,0.00,30.5,29.4,00.0,39.2,32.3,16.8,0000.0,0005.18,0003.22,0002.77
2022-09-30 05:16:00,,0827.9,4.99,0.00,30.5,29.4,00.0,39.2,32.3,16.7,0000.0,0005.09,0003.19,0002.76
2022-09-30 05:17:00,,0827.9,4.99,0.00,30.5,28.8,00.0,39.2,32.3,16.7,0000.0,0005.16,0003.19,0002.76
2022-09-30 05:18:00,,0827.8,5.00,0.00,30.5,27.3,00.0,39.1,32.2,16.8,0000.0,0005.56,0003.24,0002.79
2022-09-30 05:19:00,,0827.8,5.00,0.00,30.4,26.9,00.0,39.1,32.1,16.7,0000.0,0005.83,0003.26,0002.80
2022-09-30 05:20:00,,0827.7,5.00,0.00,30.3,27.0,00.0,39.0,31.9,16.7,0000.0,0006.00,0003.28,0002.80
2022-09-30 05:21:00,,0827.7,5.00,0.00,30.2,27.3,00.0,39.0,31.9,16.8,0000.0,0006.01,0003.27,0002.79
2022-09-30 05:22:00,,0827.7,4.99,0.00,30.2,27.7,00.0,39.0,31.9,16.7,0000.0,0005.98,0003.26,0002.78
2022-09-30 05:23:00,,0827.7,5.01,0.00,30.2,27.9,00.0,39.0,31.9,16.7,0000.0,0005.80,0003.23,0002.76
2022-09-30 05:24:00,,0827.7,4.99,0.00,30.1,28.1,00.0,39.0,31.9,16.8,0000.0,0005.85,0003.20,0002.72
2022-09-30 05:25:00,,0827.8,4.99,0.00,30.1,28.3,00.0,38.9,31.9,16.8,0000.0,0005.87,0003.18,0002.69
2022-09-30 05:26:00,,0827.7,5.01,0.00,30.1,28.4,00.0,38.9,31.9,16.6,0000.0,0005.54,0003.16,0002.67
2022-09-30 05:27:00,,0827.7,5.00,0.00,30.1,28.5,00.0,38.9,31.9,16.6,0000.0,0005.41,0003.16,0002.66
2022-09-30 05:28:00,,0827.7,4.99,0.00,30.1,28.6,00.0,38.9,32.0,16.6,0000.0,0005.30,0003.15,0002.65
2022-09-30 05:29:00,,0827.6,5.01,0.00,30.1,28.7,00.0,38.9,32.0,16.6,0000.0,0005.08,0003.14,0002.63
2022-09-30 05:30:00,,0827.7,4.99,0.00,30.1,28.7,00.0,38.9,32.0,16.6,0000.0,0004.79,0003.11,0002.62
2022-09-30 05:31:00,,0827.7,5.00,0.00,30.2,28.8,00.0,38.9,32.0,16.7,0000.0,0004.51,0003.04,0002.60
2022-09-30 05:32:00,,0827.7,4.99,0.00,30.2,28.8,00.0,38.9,32.0,16.9,0000.0,0004.44,0003.05,0002.62
2022-09-30 05:33:00,,0827.7,5.01,0.00,30.2,28.8,00.0,38.9,32.0,17.0,0000.0,0004.54,0003.10,0002.66
2022-09-30 05:34:00,,0827.7,5.00,0.00,30.2,28.8,00.0,38.9,32.0,17.1,0000.0,0004.93,0003.15,0002.69
2022-09-30 05:35:00,,0827.6,5.01,0.00,30.2,28.9,00.0,38.9,32.0,17.2,0000.0,0004.88,0003.17,0002.75
2022-09-30 05:36:00,,0827.6,5.00,0.00,30.2,28.9,00.0,39.0,32.0,17.2,0000.0,0004.99,0003.23,0002.83
2022-09-30 05:37:00,,0827.6,5.00,0.00,30.2,28.9,00.0,39.0,32.1,17.2,0000.0,0005.04,0003.26,0002.89
2022-09-30 05:38:00,,0827.6,5.00,0.00,30.2,28.9,00.0,39.0,32.1,17.2,0000.0,0005.15,0003.30,0002.93
2022-09-30 05:39:00,,0827.6,5.00,0.00,30.2,29.0,00.0,39.0,32.1,17.2,0000.0,0005.42,0003.35,0002.98
2022-09-30 05:40:00,,0827.6,5.01,0.00,30.3,29.0,00.0,39.0,32.1,17.2,0000.0,0005.32,0003.36,0003.03
2022-09-30 05:41:00,,0827.6,4.99,0.00,30.3,29.0,00.0,39.0,32.1,17.3,0000.0,0005.59,0003.43,0003.09
2022-09-30 05:42:00,,0827.5,5.01,0.00,30.3,29.0,00.0,39.0,32.1,17.3,0000.0,0005.94,0003.50,0003.13
2022-09-30 05:43:00,,0827.6,4.99,0.00,30.3,29.0,00.0,39.0,32.1,17.2,0000.0,0006.24,0003.57,0003.16
2022-09-30 05:44:00,,0827.6,5.01,0.00,30.3,29.0,00.0,39.0,32.1,16.9,0000.0,0006.43,0003.61,0003.17
2022-09-30 05:45:00,,0827.5,4.99,0.00,30.3,29.0,00.0,39.0,32.2,16.9,0000.0,0006.37,0003.62,0003.18
2022-09-30 05:46:00,,0827.6,5.00,0.00,30.3,29.0,00.0,39.0,32.2,16.8,0000.0,0006.35,0003.62,0003.18
2022-09-30 05:47:00,,0827.5,5.01,0.00,30.4,29.1,00.0,39.1,32.2,16.6,0000.0,0005.98,0003.58,0003.15
2022-09-30 05:48:00,,0827.6,4.99,0.00,30.4,29.1,00.0,39.1,32.2,16.4,0000.0,0005.88,0003.56,0003.13
2022-09-30 05:49:00,,0827.6,5.01,0.00,30.4,29.1,00.0,39.1,32.2,16.4,0000.0,0006.05,0003.57,0003.10
2022-09-30 05:50:00,,0827.5,4.98,0.00,30.4,29.1,00.0,39.1,32.3,16.4,0000.0,0005.90,0003.52,0003.05
2022-09-30 05:51:00,,0827.6,5.01,0.00,30.4,29.1,00.0,39.1,32.3,16.3,0000.0,0005.97,0003.49,0003.00
2022-09-30 05:52:00,,0827.6,5.01,0.00,30.4,29.2,00.0,39.1,32.3,16.3,0000.0,0006.53,0003.41,0002.94
2022-09-30 05:53:00,,0827.6,4.99,0.00,30.4,29.2,00.0,39.1,32.3,16.2,0000.0,0006.24,0003.35,0002.86
2022-09-30 05:54:00,,0827.6,5.01,0.00,30.4,29.2,00.0,39.2,32.3,16.3,0000.0,0005.95,0003.28,0002.81
2022-09-30 05:55:00,,0827.5,4.99,0.00,30.5,29.2,00.0,39.2,32.3,16.3,0000.0,0005.65,0003.22,0002.77
2022-09-30 05:56:00,,0827.6,5.02,0.00,30.5,29.2,00.0,39.2,32.3,16.3,0000.0,0005.29,0003.15,0002.72
2022-09-30 05:57:00,,0827.6,4.99,0.00,30.5,29.2,00.0,39.2,32.3,16.3,0000.0,0005.12,0003.13,0002.69
2022-09-30 05:58:00,,0827.5,5.00,0.00,30.5,29.2,00.0,39.2,32.3,16.3,0000.0,0005.83,0003.13,0002.67
2022-09-30 05:59:00,,0827.6,5.01,0.00,30.5,29.3,00.0,39.2,32.3,16.2,0000.0,0006.06,0003.11,0002.67
